GFSFLT1_prec_cthk_099.txt.gz
RH
28 25 20 20 20 20 21 18 20 31 28 26 29 35 36 38 40 38 42 45 50 54 50 49 47 46 56 76 81 85 95 96
30 23 21 25 21 20 21 20 21 29 26 25 25 27 32 38 43 43 44 49 54 56 53 52 47 46 57 80 84 88 97 96
25 23 24 21 24 21 21 21 21 24 24 23 23 26 30 39 42 43 47 51 60 58 54 51 50 56 63 84 91 95 96 98
15 14 20 19 20 23 21 22 22 25 25 26 26 28 35 39 41 41 46 53 61 59 51 50 55 58 69 82 88 93 98 97
22 28 27 25 19 20 19 20 23 24 25 23 22 22 30 33 38 42 50 57 56 57 49 53 51 58 70 75 91 92 94 97
42 34 28 24 21 19 17 17 21 24 27 22 21 23 29 32 38 42 51 57 57 52 47 49 45 59 72 75 81 90 93 98
47 41 36 28 24 23 19 20 20 23 26 22 23 23 29 35 39 45 51 54 55 45 46 36 41 57 68 75 84 91 95 95
45 48 42 34 26 21 20 23 22 27 26 24 26 27 31 39 43 50 52 56 46 40 34 39 45 53 61 72 89 91 95 96
54 61 53 46 38 28 27 25 26 30 27 28 34 34 40 42 48 58 57 50 43 33 39 44 47 55 62 78 89 92 96 99
51 52 60 55 56 52 37 36 36 39 37 40 44 43 47 53 58 61 56 50 34 37 42 47 56 64 74 85 92 97 97 98
54 60 63 59 65 63 54 49 48 49 54 55 48 47 57 68 67 61 59 40 38 41 48 61 69 76 91 99 96 99 98 98
61 67 70 67 65 68 63 69 68 57 60 51 55 59 68 72 68 67 50 41 40 46 61 72 78 85 94 99 99 97 97 97
66 68 74 78 75 72 71 67 63 60 56 63 65 72 74 68 69 58 49 40 45 58 69 77 86 90 98 96 99 95 99 98
67 68 73 77 76 72 72 67 63 67 70 78 80 79 74 69 68 59 48 45 51 64 73 84 93 97 99 98 98 99 98 97
65 71 75 77 74 75 72 73 73 74 80 83 85 82 79 71 66 60 49 49 56 64 73 81 95 99 99 99 98 99 99 98
60 68 74 79 76 78 78 79 80 81 82 83 84 81 81 69 65 63 54 53 60 67 71 82 96 98 98 98 97 98 98 98
57 62 69 80 85 85 86 81 84 86 81 87 88 86 85 76 74 69 62 56 62 68 70 71 89 97 97 97 98 99 98 98
61 64 69 74 85 88 85 86 87 89 89 87 92 90 86 81 82 75 67 60 61 68 69 69 71 83 96 98 98 97 98 98
66 67 69 71 73 84 89 88 89 89 92 92 92 92 92 85 87 79 72 69 68 67 67 67 69 72 72 87 90 96 98 98

GFSFLT1_prec_cthk_102.txt.gz
RH
30 27 24 23 25 25 25 22 19 19 20 28 39 53 47 46 41 36 37 37 38 40 41 47 55 53 51 48 46 53 73 86
31 31 30 28 23 22 27 21 21 22 22 26 40 61 44 35 36 39 40 42 43 43 45 50 57 54 52 47 51 58 80 89
31 32 31 30 26 25 26 24 24 23 23 23 36 39 40 41 35 38 43 46 46 46 49 56 60 56 54 52 55 65 85 90
31 34 34 36 31 28 23 23 23 24 24 25 29 34 46 44 39 38 40 44 47 47 50 59 60 59 55 56 55 72 83 93
30 35 36 37 33 28 27 23 21 23 23 23 27 30 30 27 30 34 37 43 46 48 55 61 62 60 54 56 52 70 83 92
41 37 35 34 33 26 23 23 25 23 24 24 28 32 35 34 31 30 37 43 50 51 57 61 63 57 53 54 48 68 75 85
47 39 32 33 32 26 27 25 21 24 22 24 33 36 35 33 31 30 35 42 48 52 60 64 63 53 52 43 50 65 72 86
53 38 40 35 33 30 26 25 24 23 23 26 30 32 33 29 30 27 34 39 45 52 62 62 56 52 43 44 50 62 68 76
69 66 72 53 47 40 36 34 27 28 37 40 37 35 32 31 31 31 35 42 47 59 63 55 44 42 42 47 49 54 66 81
79 79 65 55 55 54 49 40 41 48 47 43 41 43 37 35 37 35 41 48 59 67 59 46 41 45 46 50 57 64 72 78
88 77 66 72 79 70 63 51 44 49 59 61 51 51 50 48 47 42 49 57 69 64 51 41 43 45 51 63 70 73 83 86
80 74 69 68 74 80 74 70 65 61 57 60 60 61 57 59 53 54 62 72 74 60 44 42 46 57 72 77 78 86 97 98
73 71 75 69 77 79 81 85 77 70 65 77 72 71 58 58 61 73 74 75 64 50 42 46 54 68 74 81 86 96 99 97
68 65 80 79 84 87 76 78 75 76 82 78 76 69 67 67 78 78 78 69 54 47 46 51 61 71 81 90 93 98 98 98
63 66 68 76 79 81 79 80 80 80 82 79 77 74 79 83 85 82 74 68 55 50 50 54 59 70 86 97 98 97 98 98
54 64 67 73 74 83 82 80 80 83 75 77 77 83 88 88 84 81 72 66 60 55 54 59 65 71 91 98 99 98 98 98
58 56 60 66 73 80 80 79 80 83 84 84 83 86 87 89 85 80 76 68 66 61 59 65 69 70 86 97 98 98 99 99
58 58 60 63 69 76 83 82 85 85 87 88 87 88 92 90 88 82 82 76 68 64 63 68 70 69 80 94 96 97 99 98
60 61 62 63 67 72 77 84 87 89 91 90 91 96 94 93 92 91 88 78 72 70 66 69 73 73 75 78 94 98 98 99

GFSFLT1_prec_cthk_105.txt.gz
RH
13 20 26 32 34 34 36 35 31 29 31 32 32 32 30 45 53 48 43 41 40 37 39 40 44 45 49 58 58 53 52 54
11 14 19 25 29 34 36 35 30 32 34 39 28 27 28 34 49 64 56 48 44 40 43 46 47 48 50 59 57 52 52 57
13 16 18 24 28 31 33 34 29 29 30 34 25 23 27 31 45 62 54 53 49 44 45 49 50 51 53 61 58 53 54 61
18 22 23 27 27 28 29 29 26 28 29 30 27 28 33 38 52 58 47 46 51 47 49 51 53 52 55 60 59 56 57 61
25 29 26 29 29 29 30 31 29 32 30 28 25 27 29 33 46 45 53 51 53 45 52 53 53 52 57 60 60 57 58 58
34 37 38 36 38 37 36 36 32 31 29 25 28 30 30 35 38 44 42 45 50 39 49 53 53 55 63 65 61 52 60 57
48 50 54 48 46 44 41 43 35 34 29 29 26 28 33 34 40 37 36 42 41 38 46 51 51 55 64 65 60 53 56 55
71 71 71 64 57 51 48 43 37 34 32 25 24 26 32 37 39 39 44 41 38 37 43 47 50 52 61 64 57 56 50 54
92 86 86 81 63 49 44 39 40 38 33 33 28 31 38 41 52 45 42 35 36 37 44 48 51 53 63 57 55 48 50 52
95 97 95 78 67 59 46 48 42 38 37 37 34 33 39 48 57 58 39 39 37 40 46 50 53 61 63 51 41 44 50 52
98 96 98 89 79 71 57 51 53 44 41 44 48 47 56 68 59 54 48 48 41 45 51 53 59 67 55 41 42 44 49 56
99 98 89 86 85 80 76 69 60 56 54 50 54 63 74 68 66 61 62 56 51 50 55 61 71 59 45 43 46 54 65 71
98 89 86 83 80 84 88 82 71 66 64 61 61 77 77 78 76 77 72 64 57 54 64 75 67 52 45 48 56 66 74 76
83 81 82 80 79 78 82 86 86 87 84 78 69 73 76 83 86 82 67 61 64 74 77 70 55 46 48 57 63 69 74 84
75 73 76 75 82 85 89 90 91 90 96 95 93 98 93 95 90 78 69 75 78 76 72 64 53 51 54 59 64 73 84 86
66 67 75 76 80 83 82 86 89 89 87 81 90 90 93 93 87 75 77 81 78 76 73 63 58 53 57 61 64 71 88 96
65 62 68 72 77 80 78 81 83 88 92 96 98 95 85 82 84 85 86 82 81 78 73 68 62 56 61 65 65 81 96 96
62 59 64 64 70 78 77 80 82 81 97 97 99 85 83 83 88 93 91 87 79 78 77 72 63 62 65 67 70 80 94 98
67 64 64 67 66 69 75 77 87 83 87 85 83 86 87 86 89 91 90 92 89 84 83 79 72 65 69 72 74 75 91 96

GFSFLT1_prec_cthk_108.txt.gz
RH
9 10 12 18 24 27 26 28 28 33 36 38 53 55 48 43 42 42 44 38 38 40 44 45 43 42 43 45 48 53 60 63
9 9 11 13 16 21 22 27 28 31 32 31 37 46 43 42 42 43 44 51 47 41 42 48 48 45 45 48 50 54 64 65
10 12 12 12 12 16 17 19 25 29 34 30 35 36 44 47 40 42 44 52 57 48 46 49 51 50 51 49 52 55 66 65
17 18 17 15 15 15 16 17 20 23 30 35 37 42 47 48 41 38 42 42 59 61 58 58 58 57 54 54 55 55 65 67
30 25 24 20 21 20 18 17 19 21 25 30 38 39 37 35 42 35 35 42 56 51 53 59 58 62 56 57 56 59 66 68
47 39 32 29 27 26 22 21 20 23 26 27 36 36 34 31 38 36 36 41 60 59 50 53 60 53 60 58 57 60 66 69
59 52 44 39 31 32 29 26 26 29 31 33 36 34 33 36 38 35 38 40 51 63 55 56 51 44 54 57 57 59 65 72
70 64 56 52 43 37 36 35 36 36 39 41 41 39 39 38 40 41 38 41 51 52 54 48 47 37 49 55 55 58 67 71
74 71 67 66 57 51 47 46 50 50 52 49 46 45 48 46 47 48 49 51 50 53 48 47 47 38 47 52 55 59 68 68
76 83 84 86 78 71 69 64 61 61 60 55 48 51 54 50 50 48 50 54 62 56 50 43 42 43 49 54 57 60 72 64
91 94 94 99 91 89 85 76 68 63 63 56 49 55 52 55 50 45 45 51 60 65 46 42 41 48 52 60 60 72 71 56
97 96 94 96 99 96 88 81 71 68 60 53 54 52 58 53 49 46 50 60 67 65 60 46 50 56 59 61 68 71 56 45
98 98 99 98 98 97 92 90 77 69 66 65 62 64 56 50 50 58 67 71 70 74 66 61 59 62 64 68 69 63 57 50
97 98 98 97 94 89 87 91 92 86 78 70 66 67 62 62 67 70 76 76 80 88 77 63 65 65 68 75 69 62 50 54
93 92 92 90 89 90 95 92 92 91 83 83 80 80 79 75 84 84 87 92 92 91 75 66 69 76 74 71 68 52 52 56
74 77 79 80 81 87 90 90 93 96 91 84 90 89 88 85 92 97 97 98 93 77 71 77 82 80 76 74 59 52 55 58
72 70 71 80 83 88 89 90 95 94 94 98 97 98 98 95 97 97 98 89 82 79 84 85 81 83 85 71 64 56 57 58
67 66 75 78 76 82 91 90 91 93 96 99 94 97 90 99 98 95 92 88 85 85 86 85 87 85 78 74 70 61 62 64
77 75 71 72 73 74 79 88 91 92 92 97 93 98 98 98 91 91 87 89 91 91 90 89 91 85 85 84 78 70 65 67

GFSFLT1_prec_cthk_114.txt.gz
RH
13 14 12 13 11 10 11 23 29 33 40 48 53 54 59 69 67 54 49 46 46 47 52 50 43 45 46 46 47 48 50 49
23 23 22 17 15 13 10 9 19 26 32 38 44 48 53 55 58 53 45 44 46 50 54 51 44 42 44 45 48 51 52 53
28 25 25 24 20 19 17 15 13 17 26 28 35 39 40 47 51 56 55 50 46 49 51 53 45 42 45 45 46 50 53 53
32 27 28 28 25 22 19 17 17 15 16 21 25 36 41 38 40 40 44 42 40 44 45 47 51 48 49 50 50 51 53 54
36 33 31 32 31 28 24 20 17 17 19 21 22 28 31 31 34 34 32 34 37 38 45 46 49 54 55 50 52 55 57 53
40 38 39 39 38 35 29 26 22 22 24 24 23 20 24 30 29 31 33 31 34 38 45 50 48 51 55 55 58 58 57 59
46 46 44 46 48 45 41 34 32 30 27 28 29 26 24 30 29 27 30 33 26 32 44 51 49 47 49 54 65 68 69 70
55 53 50 52 58 58 54 50 47 46 39 30 31 30 28 33 31 29 32 30 32 31 41 49 50 46 52 62 75 68 62 65
64 62 63 61 64 60 58 56 52 54 49 36 34 33 33 33 37 36 37 33 36 38 44 50 50 48 53 60 67 66 63 72
72 71 74 68 64 62 68 69 71 66 58 43 40 41 39 40 40 40 38 38 42 42 48 56 54 49 52 59 76 72 74 78
77 82 82 79 76 71 75 78 84 71 58 43 42 41 39 48 49 43 45 50 49 54 54 59 57 51 54 57 71 74 78 78
87 89 94 92 86 85 89 98 90 82 66 50 47 46 47 59 54 56 60 65 69 67 62 60 58 56 53 57 69 74 79 71
89 96 95 95 95 96 97 97 98 92 79 71 67 63 66 75 76 69 69 72 75 72 70 65 63 59 62 69 74 83 80 76
95 96 96 96 97 97 98 99 99 98 93 86 78 74 80 75 70 73 79 83 85 82 77 77 77 77 78 77 88 90 84 80
95 96 97 97 94 97 98 99 98 99 97 93 92 91 90 84 76 77 78 79 85 82 84 81 77 73 75 80 80 82 79 82
94 93 95 94 93 95 99 99 99 97 99 97 97 96 93 88 86 81 82 83 87 89 88 81 73 75 82 88 92 92 88 84
91 94 84 86 90 92 93 97 97 99 98 99 96 96 93 91 88 88 87 91 91 91 89 82 83 87 93 97 97 92 91 86
86 78 80 83 82 82 84 90 96 97 95 98 99 98 98 98 98 97 94 95 94 92 90 90 94 96 96 98 97 94 92 77
84 81 79 79 79 79 83 84 91 97 98 97 98 98 98 99 97 98 98 98 98 97 96 95 97 99 97 98 99 94 87 84

GFSFLT1_prec_cthk_117.txt.gz
RH
27 28 28 27 23 22 21 22 28 30 32 43 59 71 62 62 64 57 53 48 48 57 61 56 49 49 54 57 49 49 51 52
37 33 29 27 25 21 19 22 20 19 24 27 38 56 64 64 61 64 66 58 57 66 61 61 50 47 47 54 53 53 49 55
38 37 33 33 32 28 25 20 18 20 21 24 27 34 50 54 63 60 69 72 65 65 59 56 51 51 54 56 54 53 54 50
39 38 34 34 35 35 31 29 23 20 20 20 21 22 30 43 44 53 55 62 64 62 54 51 52 49 50 59 59 56 55 52
45 42 39 37 37 37 38 35 33 27 23 22 23 24 24 28 38 40 48 52 55 56 63 62 50 48 50 51 62 58 62 60
42 43 45 41 38 38 39 38 36 34 29 25 23 23 24 24 32 44 35 40 49 44 50 61 52 47 48 49 57 64 62 61
43 46 45 44 46 44 38 39 40 38 35 31 27 26 25 23 25 37 45 41 42 41 41 44 50 47 49 51 53 59 65 69
51 50 48 47 47 45 41 41 42 45 43 38 33 28 26 27 24 26 51 45 38 29 37 36 37 43 47 51 55 55 60 63
56 56 57 56 55 52 50 47 47 49 48 45 42 35 30 26 25 23 32 67 36 37 28 31 35 37 46 55 58 59 57 60
65 64 64 65 65 62 58 55 53 53 51 50 50 48 44 38 28 29 34 54 40 42 35 30 31 35 39 52 58 60 58 59
75 74 76 79 78 79 72 64 62 59 60 67 65 59 54 41 31 37 38 43 59 46 47 33 38 37 36 49 56 58 61 60
82 85 88 89 88 92 87 80 70 69 74 78 64 52 51 40 32 42 48 53 60 61 61 46 41 41 43 50 57 61 67 68
91 93 92 94 95 94 89 90 88 86 88 81 64 49 40 43 52 64 65 73 78 76 68 67 50 48 51 55 65 67 69 76
95 97 96 96 97 94 94 94 97 93 97 83 78 61 53 52 57 68 78 78 93 85 77 79 71 57 56 62 67 72 72 76
97 97 97 96 96 96 97 98 98 98 98 92 86 80 73 66 69 80 89 83 74 74 77 79 77 64 61 65 76 79 82 81
96 96 94 94 96 97 97 97 97 98 98 99 96 94 89 84 91 84 84 81 79 81 83 84 76 76 78 82 86 90 89 85
96 94 88 91 90 87 88 97 97 98 98 98 99 98 97 94 93 94 85 84 83 78 87 92 93 96 96 93 89 89 87 88
92 87 85 86 84 84 84 90 95 98 98 97 97 99 98 99 96 97 95 93 91 90 90 90 93 93 97 98 94 93 95 94
85 77 75 78 79 82 83 84 87 90 94 95 94 95 98 98 98 98 98 98 99 96 99 100 95 97 99 100 98 99 98 99

GFSFLT1_prec_cthk_123.txt.gz
RH
30 27 25 25 26 28 29 27 24 24 23 22 23 28 37 50 73 78 89 88 85 87 66 60 63 61 51 53 53 52 49 45
35 31 31 29 29 29 28 29 28 26 23 20 19 20 26 37 43 62 75 78 85 90 69 70 73 72 56 52 53 53 52 52
40 36 34 32 32 34 32 29 26 27 28 24 22 19 18 24 35 43 57 64 71 66 74 84 78 72 64 58 51 52 53 56
46 42 41 42 39 38 37 35 33 31 31 30 27 25 22 19 23 31 41 52 63 74 79 89 74 79 61 62 55 53 56 57
54 52 49 45 43 43 41 39 39 36 34 33 33 30 27 23 20 24 29 40 48 57 71 74 71 89 70 61 58 53 61 58
61 59 57 55 52 48 45 41 38 38 38 38 37 35 34 30 25 20 24 32 39 44 54 62 82 86 85 78 65 57 66 68
60 57 56 54 50 45 42 39 38 39 38 39 40 40 37 35 32 26 21 22 35 40 41 51 60 78 83 76 82 76 72 85
61 58 55 52 49 46 43 44 43 43 42 43 43 41 41 40 37 33 28 22 20 35 44 47 46 55 66 74 77 88 98 92
66 63 55 51 50 50 51 50 51 50 50 49 48 46 43 41 39 38 33 29 23 18 36 47 50 53 49 62 75 86 97 95
68 61 58 61 62 61 62 64 62 63 64 60 58 54 49 42 39 37 38 34 27 23 20 25 44 40 43 57 61 72 84 92
72 71 74 73 73 75 81 80 80 80 80 74 70 69 63 54 46 39 38 38 36 31 25 20 20 32 34 42 61 75 83 85
76 79 79 86 90 93 94 93 94 93 92 90 83 74 67 60 53 51 52 50 52 45 37 32 25 22 34 32 42 73 94 93
86 88 93 96 96 96 97 97 96 97 96 93 87 80 74 69 69 72 76 70 70 58 52 46 34 31 28 35 27 31 79 89
94 95 94 96 96 96 97 97 97 97 96 92 90 88 84 85 85 76 69 59 57 55 49 50 43 39 30 31 32 40 39 58
96 96 96 96 96 96 96 97 97 95 95 91 87 88 90 94 85 82 73 71 67 62 53 53 47 42 45 45 37 55 58 61
96 96 96 96 96 97 97 97 97 96 96 95 92 92 95 95 93 92 86 81 81 82 77 64 61 64 70 76 73 71 74 84
93 90 87 87 89 88 91 94 96 97 96 97 97 98 97 97 97 99 97 96 98 93 92 88 84 83 88 99 89 88 98 81
72 60 57 53 55 53 53 50 55 66 76 90 96 97 96 97 98 98 98 96 98 98 97 96 93 95 98 95 98 88 98 95
56 48 45 40 36 32 27 25 25 25 29 36 52 62 68 76 84 90 96 96 96 96 97 98 98 98 99 98 98 98 98 97

GFSFLT1_prec_cthk_129.txt.gz
RH
35 34 32 30 29 27 27 27 25 24 23 23 23 22 22 23 21 19 19 26 34 48 62 96 86 89 94 92 84 77 68 62
37 36 35 35 36 35 33 31 27 27 25 24 25 24 23 24 24 21 19 17 20 25 38 55 95 92 90 96 92 81 86 78
38 36 36 36 36 36 35 34 33 31 29 28 28 29 27 26 25 25 26 23 20 20 23 36 64 85 94 95 91 91 82 91
37 38 39 39 40 39 39 39 39 40 39 38 35 34 32 31 30 27 27 29 28 22 19 23 39 53 94 83 91 92 88 93
43 44 44 43 44 46 47 46 43 42 41 42 40 37 35 35 32 31 30 32 31 28 22 17 25 41 70 97 87 95 90 92
54 54 53 53 52 50 47 45 45 44 44 45 45 40 37 36 37 37 34 33 34 33 28 21 15 29 45 80 84 94 89 86
60 59 57 55 52 50 49 48 48 48 47 48 46 42 40 38 37 36 39 37 34 36 35 30 21 17 33 51 74 80 84 97
60 57 54 51 49 49 49 51 50 50 48 46 46 46 45 44 44 44 44 43 42 40 39 37 32 23 21 35 48 70 80 82
60 59 59 57 55 54 52 51 52 54 55 57 59 57 54 50 53 53 53 50 47 43 44 42 38 33 26 26 31 37 54 68
62 64 62 60 57 55 57 58 63 68 73 75 73 67 63 60 61 62 60 59 56 51 48 45 42 39 34 29 29 29 32 42
62 61 60 61 64 69 72 76 82 90 88 84 83 80 79 74 72 71 66 63 59 56 52 48 43 41 40 36 31 34 33 33
67 66 68 74 79 83 88 95 95 89 84 87 86 87 90 93 92 83 75 64 57 54 52 49 46 42 40 41 38 34 35 37
69 72 80 86 90 95 96 96 94 88 88 91 92 93 94 95 94 90 82 74 63 57 51 43 40 41 43 40 41 42 39 38
78 82 87 88 90 95 98 96 94 90 92 95 96 97 97 96 90 86 78 72 68 64 59 52 51 51 51 48 45 44 44 41
86 87 87 75 73 79 89 92 93 94 96 96 97 97 97 96 93 93 93 84 81 75 71 68 63 60 58 63 66 65 59 52
87 80 76 64 58 55 51 53 60 72 91 97 97 97 97 97 97 98 97 93 87 83 80 81 81 83 82 64 70 74 74 73
80 66 57 51 40 33 32 33 38 42 38 45 60 80 93 91 90 91 92 93 90 87 84 88 89 94 92 82 72 72 77 77
65 55 45 42 33 30 23 20 20 21 26 23 23 28 31 34 44 56 62 67 74 78 81 85 90 94 96 98 95 80 72 72
58 48 39 35 31 23 21 19 15 12 12 13 18 16 16 19 21 21 22 26 30 35 47 64 74 85 94 97 98 98 94 78

GFSFLT1_prec_cthk_132.txt.gz
RH
35 34 34 33 33 33 32 32 29 27 25 25 24 23 24 25 25 24 22 21 20 17 23 27 33 45 52 71 94 90 79 77
40 38 37 36 34 33 32 31 30 29 28 26 26 26 27 25 23 23 25 24 23 22 19 21 24 25 37 47 62 88 74 85
37 36 36 35 34 33 33 33 33 32 31 31 31 30 29 30 29 27 27 25 25 24 25 23 21 22 25 33 42 71 83 87
35 35 35 35 35 35 36 36 37 37 36 35 36 35 34 34 35 33 31 30 30 28 27 27 27 27 23 28 36 46 70 93
38 38 38 39 39 40 41 41 42 43 43 43 43 42 41 39 36 33 32 33 33 33 31 30 30 29 29 26 32 38 48 65
44 44 44 43 43 42 45 46 46 45 45 45 44 44 42 37 36 36 34 33 32 32 32 32 31 30 30 28 31 36 42 51
49 49 47 44 44 42 44 45 45 44 44 44 45 44 45 43 42 42 41 40 39 37 37 36 33 31 30 30 31 36 44 44
53 50 50 50 48 48 49 51 52 52 52 51 49 48 49 48 48 45 45 46 46 45 44 43 41 37 32 29 30 39 36 39
54 56 56 54 53 51 52 55 55 55 54 54 54 58 62 64 65 64 59 55 54 53 51 48 44 42 38 32 30 33 40 42
56 56 54 55 54 54 56 62 66 67 68 71 73 72 75 83 84 76 70 65 61 59 59 56 52 46 42 40 33 32 43 40
58 57 57 57 59 62 70 77 83 85 81 75 73 77 86 90 93 91 87 78 72 68 66 60 59 53 47 45 42 40 37 47
61 63 61 62 66 77 88 95 92 89 81 76 79 88 96 97 97 97 97 94 84 79 72 67 65 61 54 47 46 48 45 40
68 66 69 69 70 86 94 95 93 92 85 84 90 96 97 97 97 97 97 94 91 82 73 68 64 59 55 53 52 48 47 47
70 72 80 68 72 81 74 77 86 94 92 93 96 97 97 97 96 93 91 86 82 80 73 70 65 60 58 55 54 51 48 46
74 81 83 71 69 65 61 54 51 56 71 92 96 97 97 97 97 97 97 97 97 95 84 79 80 78 74 72 69 66 64 61
82 78 75 66 58 50 40 42 38 38 40 41 50 69 77 83 86 93 97 95 94 94 95 94 95 92 89 87 86 77 76 71
80 73 62 50 39 34 28 28 33 28 25 27 28 31 33 35 38 45 55 65 73 78 83 86 89 91 96 99 96 88 80 80
73 63 53 47 38 29 23 20 22 22 22 21 17 19 20 20 23 23 23 26 30 37 47 59 68 80 84 87 91 95 94 88
62 54 46 39 33 25 22 22 17 16 12 12 12 12 12 12 11 11 11 13 15 18 20 21 24 28 42 63 76 83 92 94